📊 Raw Sensor Data

Showing records 37526 to 37550 of 84,914 total

ID Distance (ft) Battery V Battery A Int Temp (°F) Int Humid (%) Ext Temp (°F) Solar V RSSI SNR Time Stamp
47401 14.9 3.92 0 78 42 74 5.10 -72 7 07/26/2025 12:30 PM
47400 14.9 3.92 0 77 43 74 5.10 -71 8 07/26/2025 12:15 PM
47399 14.9 3.92 0 75 43 72 5.10 -72 8 07/26/2025 12:00 PM
47398 14.9 4.07 0 75 43 71 5.10 -71 7 07/26/2025 11:45 AM
47397 14.9 3.92 0 75 43 75 5.10 -72 8 07/26/2025 11:30 AM
47396 15.0 3.92 0 73 43 73 5.10 -71 7 07/26/2025 11:00 AM
47395 15.0 3.92 5 73 42 72 5.10 -71 7 07/26/2025 10:45 AM
47394 15.0 3.92 0 72 43 73 5.10 -70 8 07/26/2025 10:30 AM
47393 15.0 3.92 0 70 43 68 5.10 -70 8 07/26/2025 10:15 AM
47392 15.0 3.92 0 70 43 70 5.10 -74 7 07/26/2025 10:00 AM
47391 15.0 3.92 0 69 42 68 5.10 -74 8 07/26/2025 09:45 AM
47390 15.0 3.92 5 68 43 70 5.10 -72 8 07/26/2025 09:30 AM
47389 15.0 3.92 6 67 42 68 5.10 -71 7 07/26/2025 09:15 AM
47388 14.9 3.92 8 65 43 66 5.10 -70 8 07/26/2025 09:00 AM
47387 14.9 3.92 0 64 43 64 5.10 -71 8 07/26/2025 08:45 AM
47386 14.9 3.92 0 63 43 63 5.10 -71 7 07/26/2025 08:30 AM
47385 14.8 4.00 8 62 43 61 5.10 -71 7 07/26/2025 08:15 AM
47384 14.8 3.99 42 61 43 61 4.50 -71 8 07/26/2025 08:00 AM
47383 14.8 4.03 19 61 43 60 4.50 -70 8 07/26/2025 07:45 AM
47382 14.8 3.94 30 60 43 60 4.50 -71 8 07/26/2025 07:30 AM
47381 15.0 3.96 0 59 43 62 4.50 -71 8 07/26/2025 07:15 AM
47380 14.9 3.86 0 58 43 62 4.60 -69 8 07/26/2025 07:00 AM
47379 14.8 3.86 0 56 44 60 4.50 -71 5 07/26/2025 06:45 AM
47378 14.8 3.84 -8 56 44 56 4.50 -70 8 07/26/2025 06:30 AM
47377 14.8 3.83 -10 56 44 57 4.20 -70 9 07/26/2025 06:15 AM